RYR99PH LBSF-GMMX

Flight info

Callsign RYR99PH
Flight time 4h 19m
Altitude 37000
Route NAPET T214 SIN DCT SKJ DCT ENFAR DCT VAKSU DCT AIOSA DCT LAT DCT GOKMI DCT SUPUX DCT KUPIM DCT SUXER DCT RIPAL DCT MORSS DCT MHN DCT CDP DCT LULAK DCT EDULI DCT OKITI DCT IBEBA DCT BAVER DCT GERVU DCT ALT DCT RESTU DCT DOSEK DCT AMR N860 BERUM UG850 FES UM372 BML UQ401 RUBAB UL102 AGOVA UH400 ABDOR UM372 KUDAX
Aircraft B738/M-SDE2E3FGHIRWXY/LB1

Departure

Time 2026-04-29 14:54
Airport Sofia Airport (LBSF)

Arrival

Time 2026-04-29 19:13
Airport Marrakesh Menara Airport (GMMX)
Time Latitude Longitude Altitude Speed Heading
2026-04-29 14:32 42.69006 23.41016 1752 ft 0 kts 162°
2026-04-29 14:48 42.69001 23.41018 1745 ft 2 kts 162°
2026-04-29 14:48 42.68978 23.41028 1749 ft 5 kts 162°
2026-04-29 14:49 42.68941 23.41012 1752 ft 7 kts 235°
2026-04-29 14:49 42.68920 23.40937 1749 ft 10 kts 252°
2026-04-29 14:49 42.68915 23.40836 1752 ft 12 kts 284°
2026-04-29 14:49 42.68941 23.40719 1750 ft 14 kts 287°
2026-04-29 14:50 42.68972 23.40584 1749 ft 16 kts 287°
2026-04-29 14:50 42.69000 23.40462 1752 ft 17 kts 287°
2026-04-29 14:50 42.69040 23.40290 1744 ft 19 kts 287°
2026-04-29 14:50 42.69081 23.40110 1747 ft 21 kts 287°
2026-04-29 14:51 42.69112 23.39913 1748 ft 22 kts 285°
2026-04-29 14:51 42.69152 23.39713 1746 ft 22 kts 284°
2026-04-29 14:51 42.69203 23.39558 1749 ft 16 kts 335°
2026-04-29 14:51 42.69311 23.39564 1752 ft 15 kts
2026-04-29 14:52 42.69416 23.39571 1752 ft 15 kts
2026-04-29 14:52 42.69518 23.39581 1749 ft 15 kts
2026-04-29 14:52 42.69627 23.39591 1752 ft 17 kts
2026-04-29 14:52 42.69746 23.39611 1752 ft 18 kts 30°
2026-04-29 14:53 42.69764 23.39777 1752 ft 23 kts 94°
2026-04-29 14:53 42.69733 23.40312 1747 ft 91 kts 94°
2026-04-29 14:53 42.69666 23.41460 1749 ft 150 kts 95°
2026-04-29 14:53 42.69570 23.43059 2043 ft 175 kts 94°
2026-04-29 14:54 42.69462 23.44724 2815 ft 181 kts 91°
2026-04-29 14:54 42.69362 23.46393 3848 ft 171 kts 93°
2026-04-29 14:54 42.69271 23.48009 4587 ft 173 kts 92°
2026-04-29 14:54 42.69174 23.49095 4979 ft 178 kts 104°
2026-04-29 14:55 42.68415 23.50535 5195 ft 205 kts 149°
2026-04-29 14:55 42.66503 23.50983 5614 ft 219 kts 178°
2026-04-29 14:55 42.64931 23.51071 5872 ft 236 kts 177°
2026-04-29 14:55 42.63796 23.51181 5989 ft 248 kts 176°
2026-04-29 14:56 42.61467 23.51468 6521 ft 260 kts 182°
2026-04-29 14:56 42.60246 23.51163 6630 ft 271 kts 207°
2026-04-29 14:56 42.58830 23.49521 7214 ft 270 kts 236°
2026-04-29 14:56 42.57750 23.47462 8070 ft 267 kts 237°
2026-04-29 14:57 42.56675 23.45398 8795 ft 269 kts 237°
2026-04-29 14:57 42.55583 23.43318 9535 ft 271 kts 236°
2026-04-29 14:57 42.54483 23.41244 10256 ft 272 kts 236°
2026-04-29 14:57 42.53332 23.39092 10502 ft 293 kts 236°
2026-04-29 14:58 42.52089 23.36786 10651 ft 313 kts 236°
2026-04-29 14:58 42.50881 23.34237 10872 ft 328 kts 247°
2026-04-29 14:58 42.50094 23.31315 11424 ft 332 kts 252°
2026-04-29 14:58 42.49366 23.28333 12122 ft 334 kts 253°
2026-04-29 14:59 42.48637 23.25319 12722 ft 339 kts 253°
2026-04-29 14:59 42.47896 23.22275 13428 ft 341 kts 253°
2026-04-29 14:59 42.47144 23.19210 14043 ft 346 kts 253°
2026-04-29 14:59 42.46377 23.16103 14611 ft 349 kts 253°
2026-04-29 15:00 42.45602 23.12986 15238 ft 350 kts 253°
2026-04-29 15:00 42.44820 23.09853 15827 ft 352 kts 253°
2026-04-29 15:00 42.44040 23.06737 16382 ft 356 kts 253°
2026-04-29 15:00 42.43242 23.03556 16959 ft 358 kts 253°
2026-04-29 15:01 42.42436 23.00353 17543 ft 361 kts 253°
2026-04-29 15:01 42.41628 22.97133 18158 ft 362 kts 254°
2026-04-29 15:01 42.40811 22.93892 18650 ft 366 kts 254°
2026-04-29 15:01 42.39984 22.90625 19124 ft 369 kts 254°
2026-04-29 15:02 42.39150 22.87333 19617 ft 371 kts 254°
2026-04-29 15:02 42.38309 22.84023 20090 ft 373 kts 254°
2026-04-29 15:02 42.37462 22.80690 20573 ft 376 kts 254°
2026-04-29 15:02 42.36610 22.77339 21004 ft 379 kts 254°
2026-04-29 15:03 42.35748 22.73955 21468 ft 381 kts 254°
2026-04-29 15:03 42.34882 22.70563 21945 ft 383 kts 254°
2026-04-29 15:03 42.34010 22.67148 22390 ft 385 kts 254°
2026-04-29 15:03 42.33133 22.63720 22836 ft 387 kts 254°
2026-04-29 15:04 42.32247 22.60262 23246 ft 390 kts 254°
2026-04-29 15:04 42.31356 22.56789 23679 ft 392 kts 254°
2026-04-29 15:04 42.30460 22.53300 24058 ft 394 kts 254°
2026-04-29 15:04 42.29558 22.49796 24421 ft 396 kts 254°
2026-04-29 15:05 42.28651 22.46275 24778 ft 397 kts 254°
2026-04-29 15:05 42.27740 22.42742 25113 ft 399 kts 254°
2026-04-29 15:05 42.26824 22.39197 25458 ft 401 kts 254°
2026-04-29 15:05 42.25901 22.35629 25802 ft 403 kts 254°
2026-04-29 15:06 42.24975 22.32056 26120 ft 405 kts 254°
2026-04-29 15:06 42.24042 22.28462 26431 ft 407 kts 254°
2026-04-29 15:06 42.23103 22.24851 26743 ft 408 kts 254°
2026-04-29 15:06 42.22161 22.21233 27031 ft 410 kts 254°
2026-04-29 15:07 42.21211 22.17589 27313 ft 412 kts 254°
2026-04-29 15:07 42.20259 22.13942 27611 ft 414 kts 254°
2026-04-29 15:07 42.19299 22.10273 27885 ft 416 kts 254°
2026-04-29 15:07 42.18334 22.06589 28142 ft 418 kts 254°
2026-04-29 15:08 42.17362 22.02884 28412 ft 420 kts 254°
2026-04-29 15:08 42.16385 21.99161 28703 ft 422 kts 254°
2026-04-29 15:08 42.15404 21.95437 29060 ft 421 kts 254°
2026-04-29 15:08 42.14423 21.91719 29435 ft 420 kts 254°
2026-04-29 15:09 42.13446 21.88019 29811 ft 419 kts 254°
2026-04-29 15:09 42.12468 21.84321 30193 ft 418 kts 254°
2026-04-29 15:09 42.11507 21.80694 30523 ft 416 kts 254°
2026-04-29 15:09 42.10534 21.77026 30825 ft 415 kts 254°
2026-04-29 15:10 42.09563 21.73368 31111 ft 415 kts 254°
2026-04-29 15:10 42.08593 21.69720 31409 ft 414 kts 254°
2026-04-29 15:10 42.07625 21.66086 31713 ft 412 kts 254°
2026-04-29 15:10 42.06658 21.62459 31993 ft 411 kts 254°
2026-04-29 15:11 42.05689 21.58832 32226 ft 412 kts 254°
2026-04-29 15:11 42.04722 21.55218 32551 ft 409 kts 254°
2026-04-29 15:11 42.03759 21.51623 32821 ft 409 kts 254°
2026-04-29 15:11 42.02794 21.48024 33009 ft 410 kts 254°
2026-04-29 15:12 42.01824 21.44413 33192 ft 411 kts 254°
2026-04-29 15:12 42.00851 21.40795 33410 ft 411 kts 254°
2026-04-29 15:12 41.99880 21.37194 33688 ft 409 kts 254°
2026-04-29 15:12 41.98912 21.33608 33971 ft 408 kts 254°
2026-04-29 15:13 41.97941 21.30015 33981 ft 411 kts 254°
2026-04-29 15:13 41.95989 21.22808 34004 ft 410 kts 254°
2026-04-29 15:14 41.94039 21.15630 34024 ft 408 kts 253°
2026-04-29 15:14 41.92091 21.08482 34029 ft 408 kts 253°
2026-04-29 15:15 41.90140 21.01339 34047 ft 408 kts 253°
2026-04-29 15:15 41.88177 20.94171 34034 ft 410 kts 253°
2026-04-29 15:16 41.86202 20.86984 34033 ft 411 kts 253°
2026-04-29 15:16 41.84225 20.79812 34027 ft 409 kts 253°
2026-04-29 15:17 41.82253 20.72676 34039 ft 408 kts 253°
2026-04-29 15:17 41.80281 20.65556 34057 ft 407 kts 253°
2026-04-29 15:18 41.78319 20.58428 34053 ft 407 kts 256°
2026-04-29 15:18 41.77491 20.51070 34057 ft 402 kts 271°
2026-04-29 15:19 41.78080 20.43667 34066 ft 401 kts 281°
2026-04-29 15:19 41.79074 20.36299 34054 ft 403 kts 281°
2026-04-29 15:20 41.80068 20.28892 34052 ft 404 kts 281°
2026-04-29 15:20 41.81037 20.21473 34075 ft 405 kts 281°
2026-04-29 15:21 41.82000 20.13975 34059 ft 406 kts 280°
2026-04-29 15:21 41.82944 20.06556 34055 ft 407 kts 280°
2026-04-29 15:22 41.83891 19.99078 34071 ft 407 kts 280°
2026-04-29 15:22 41.84833 19.91597 34061 ft 406 kts 280°
2026-04-29 15:23 41.85769 19.84125 34059 ft 406 kts 280°
2026-04-29 15:23 41.86698 19.76665 34046 ft 405 kts 280°
2026-04-29 15:24 41.87621 19.69216 34059 ft 404 kts 280°
2026-04-29 15:24 41.88539 19.61767 34052 ft 405 kts 280°
2026-04-29 15:25 41.89451 19.54325 34040 ft 404 kts 280°
2026-04-29 15:25 41.90358 19.46883 34037 ft 404 kts 280°
2026-04-29 15:26 41.91260 19.39440 34041 ft 404 kts 280°
2026-04-29 15:26 41.92158 19.31993 34041 ft 404 kts 280°
2026-04-29 15:27 41.93051 19.24539 34045 ft 405 kts 280°
2026-04-29 15:27 41.93941 19.17071 34042 ft 405 kts 279°
2026-04-29 15:28 41.94827 19.09592 34039 ft 406 kts 279°
2026-04-29 15:28 41.95710 19.02098 34043 ft 406 kts 279°
2026-04-29 15:29 41.96587 18.94601 34038 ft 407 kts 279°
2026-04-29 15:30 41.98331 18.79576 34038 ft 407 kts 279°
2026-04-29 15:30 41.99198 18.72049 34040 ft 407 kts 279°
2026-04-29 15:31 42.00058 18.64525 34038 ft 407 kts 279°
2026-04-29 15:31 42.00914 18.57003 34034 ft 407 kts 279°
2026-04-29 15:32 42.01273 18.49422 34024 ft 408 kts 266°
2026-04-29 15:32 42.00771 18.41863 34032 ft 408 kts 266°
2026-04-29 15:33 42.00260 18.34268 34025 ft 408 kts 266°
2026-04-29 15:33 41.99764 18.26659 34025 ft 408 kts 266°
2026-04-29 15:34 41.99273 18.19061 34026 ft 408 kts 266°
2026-04-29 15:34 41.98781 18.11462 34024 ft 408 kts 266°
2026-04-29 15:35 41.98283 18.03858 34023 ft 408 kts 266°
2026-04-29 15:35 41.97779 17.96253 34020 ft 409 kts 266°
2026-04-29 15:36 41.97270 17.88647 34019 ft 409 kts 266°
2026-04-29 15:36 41.96757 17.81043 34017 ft 409 kts 266°
2026-04-29 15:37 41.96236 17.73416 34014 ft 409 kts 266°
2026-04-29 15:37 41.95711 17.65796 34014 ft 410 kts 266°
2026-04-29 15:38 41.95181 17.58181 34014 ft 410 kts 266°
2026-04-29 15:38 41.94646 17.50553 34010 ft 410 kts 265°
2026-04-29 15:39 41.94105 17.42932 34006 ft 410 kts 265°
2026-04-29 15:39 41.93560 17.35312 34005 ft 410 kts 265°
2026-04-29 15:40 41.93014 17.27741 34002 ft 410 kts 265°
2026-04-29 15:40 41.92462 17.20080 34002 ft 409 kts 265°
2026-04-29 15:41 41.91927 17.12541 34006 ft 408 kts 265°
2026-04-29 15:41 41.91387 17.04960 34002 ft 408 kts 265°
2026-04-29 15:42 41.90840 16.97381 34005 ft 408 kts 265°
2026-04-29 15:42 41.90288 16.89798 34003 ft 408 kts 265°
2026-04-29 15:43 41.89730 16.82214 34007 ft 409 kts 265°
2026-04-29 15:43 41.89258 16.75848 34005 ft 409 kts 265°
2026-04-29 15:44 41.88689 16.68233 34022 ft 412 kts 265°
2026-04-29 15:44 41.88109 16.60546 34279 ft 414 kts 265°
2026-04-29 15:44 41.87821 16.56763 34519 ft 413 kts 265°
2026-04-29 15:45 41.87529 16.52935 34742 ft 411 kts 265°
2026-04-29 15:45 41.87232 16.49071 34920 ft 411 kts 265°
2026-04-29 15:45 41.86942 16.45306 34991 ft 412 kts 265°
2026-04-29 15:46 41.86348 16.37630 34998 ft 414 kts 265°
2026-04-29 15:46 41.85749 16.29967 34998 ft 412 kts 265°
2026-04-29 15:47 41.85147 16.22345 35004 ft 410 kts 265°
2026-04-29 15:47 41.84543 16.14745 35012 ft 409 kts 265°
2026-04-29 15:48 41.83934 16.07161 35005 ft 409 kts 265°
2026-04-29 15:48 41.83322 15.99579 35016 ft 409 kts 265°
2026-04-29 15:49 41.82703 15.91988 35012 ft 410 kts 264°
2026-04-29 15:49 41.82076 15.84370 35024 ft 413 kts 264°
2026-04-29 15:50 41.81438 15.76676 35017 ft 417 kts 264°
2026-04-29 15:50 41.80791 15.68936 35020 ft 419 kts 264°
2026-04-29 15:51 41.80136 15.61158 35014 ft 421 kts 264°
2026-04-29 15:51 41.79474 15.53372 35004 ft 421 kts 264°
2026-04-29 15:52 41.78808 15.45599 34997 ft 419 kts 264°
2026-04-29 15:52 41.78139 15.37861 34978 ft 417 kts 264°
2026-04-29 15:53 41.77469 15.30164 34989 ft 415 kts 264°
2026-04-29 15:53 41.76797 15.22504 34995 ft 413 kts 264°
2026-04-29 15:54 41.76124 15.14886 34988 ft 411 kts 264°
2026-04-29 15:54 41.75447 15.07286 34990 ft 411 kts 264°
2026-04-29 15:55 41.74765 14.99692 35009 ft 411 kts 264°
2026-04-29 15:55 41.74082 14.92142 35010 ft 411 kts 264°
2026-04-29 15:56 41.73388 14.84524 34997 ft 413 kts 264°
2026-04-29 15:56 41.72686 14.76877 35012 ft 415 kts 264°
2026-04-29 15:57 41.71976 14.69192 34996 ft 417 kts 264°
2026-04-29 15:57 41.71221 14.61520 35013 ft 416 kts 261°
2026-04-29 15:58 41.70037 14.53957 35021 ft 415 kts 258°
2026-04-29 15:58 41.68742 14.46444 35014 ft 414 kts 258°
2026-04-29 15:59 41.67465 14.38914 35024 ft 416 kts 258°
2026-04-29 15:59 41.66204 14.31356 35012 ft 417 kts 258°
2026-04-29 16:00 41.64945 14.23766 35035 ft 419 kts 258°
2026-04-29 16:00 41.63679 14.16155 35031 ft 420 kts 258°
2026-04-29 16:01 41.62407 14.08536 35028 ft 420 kts 258°
2026-04-29 16:01 41.61131 14.00931 35030 ft 419 kts 258°
2026-04-29 16:02 41.59852 13.93346 35035 ft 418 kts 258°
2026-04-29 16:02 41.58572 13.85784 35026 ft 417 kts 258°
2026-04-29 16:03 41.57290 13.78239 35027 ft 416 kts 258°
2026-04-29 16:03 41.56005 13.70713 35028 ft 415 kts 258°
2026-04-29 16:04 41.54714 13.63183 35034 ft 417 kts 258°
2026-04-29 16:04 41.53413 13.55624 35052 ft 419 kts 258°
2026-04-29 16:05 41.52101 13.48037 35044 ft 420 kts 258°
2026-04-29 16:05 41.50790 13.40480 35045 ft 422 kts 258°
2026-04-29 16:06 41.49461 13.32857 35049 ft 422 kts 258°
2026-04-29 16:06 41.48127 13.25237 35036 ft 422 kts 258°
2026-04-29 16:07 41.46789 13.17630 35042 ft 421 kts 258°
2026-04-29 16:07 41.45450 13.10040 35025 ft 420 kts 258°
2026-04-29 16:08 41.44108 13.02474 35044 ft 419 kts 257°
2026-04-29 16:08 41.42765 12.94926 35045 ft 418 kts 257°
2026-04-29 16:09 41.41420 12.87400 35050 ft 417 kts 257°
2026-04-29 16:09 41.40072 12.79888 35044 ft 417 kts 257°
2026-04-29 16:10 41.38719 12.72377 35046 ft 417 kts 257°
2026-04-29 16:10 41.37362 12.64876 35043 ft 417 kts 257°
2026-04-29 16:11 41.35999 12.57367 35045 ft 418 kts 257°
2026-04-29 16:11 41.34638 12.49903 35041 ft 418 kts 257°
2026-04-29 16:12 41.33260 12.42377 35042 ft 419 kts 257°
2026-04-29 16:12 41.31874 12.34834 35038 ft 420 kts 257°
2026-04-29 16:13 41.30482 12.27290 35035 ft 420 kts 257°
2026-04-29 16:13 41.29083 12.19738 35033 ft 421 kts 257°
2026-04-29 16:14 41.27677 12.12181 35038 ft 421 kts 257°
2026-04-29 16:14 41.26266 12.04622 35036 ft 421 kts 257°
2026-04-29 16:15 41.24891 11.97290 35031 ft 421 kts 257°
2026-04-29 16:15 41.23470 11.89738 35033 ft 421 kts 257°
2026-04-29 16:16 41.22045 11.82193 35033 ft 421 kts 257°
2026-04-29 16:16 41.20616 11.74658 35027 ft 420 kts 257°
2026-04-29 16:17 41.19184 11.67135 35029 ft 420 kts 256°
2026-04-29 16:17 41.17747 11.59614 35027 ft 421 kts 256°
2026-04-29 16:18 41.16301 11.52074 35023 ft 422 kts 256°
2026-04-29 16:18 41.14856 11.44572 35026 ft 423 kts 256°
2026-04-29 16:19 41.13394 11.37010 35021 ft 423 kts 256°
2026-04-29 16:19 41.11926 11.29445 35018 ft 424 kts 256°
2026-04-29 16:20 41.10453 11.21881 35015 ft 424 kts 256°
2026-04-29 16:20 41.08972 11.14311 35018 ft 424 kts 256°
2026-04-29 16:21 41.07489 11.06755 35011 ft 423 kts 256°
2026-04-29 16:21 41.06005 10.99224 35014 ft 422 kts 256°
2026-04-29 16:22 41.04519 10.91705 35015 ft 422 kts 256°
2026-04-29 16:22 41.03025 10.84179 35005 ft 422 kts 256°
2026-04-29 16:23 41.01527 10.76663 35005 ft 422 kts 256°
2026-04-29 16:23 41.00023 10.69141 35004 ft 423 kts 256°
2026-04-29 16:24 40.98513 10.61620 34998 ft 423 kts 255°
2026-04-29 16:24 40.97000 10.54105 35001 ft 423 kts 255°
2026-04-29 16:25 40.95488 10.46628 35001 ft 423 kts 255°
2026-04-29 16:25 40.93961 10.39107 34993 ft 424 kts 255°
2026-04-29 16:26 40.92428 10.31581 34992 ft 424 kts 255°
2026-04-29 16:26 40.90890 10.24057 34989 ft 424 kts 255°
2026-04-29 16:27 40.89346 10.16529 34990 ft 424 kts 255°
2026-04-29 16:27 40.87795 10.09001 34985 ft 424 kts 255°
2026-04-29 16:28 40.86240 10.01477 34983 ft 425 kts 255°
2026-04-29 16:28 40.84679 9.93951 34986 ft 425 kts 255°
2026-04-29 16:29 40.83114 9.86433 34985 ft 425 kts 255°
2026-04-29 16:29 40.81576 9.79068 34986 ft 425 kts 255°
2026-04-29 16:30 40.80000 9.71552 34988 ft 425 kts 255°
2026-04-29 16:30 40.78418 9.64034 34989 ft 425 kts 255°
2026-04-29 16:31 40.76830 9.56513 34997 ft 426 kts 254°
2026-04-29 16:31 40.75504 9.50251 34987 ft 427 kts 254°
2026-04-29 16:32 40.73902 9.42713 34991 ft 427 kts 254°
2026-04-29 16:32 40.72291 9.35160 34982 ft 428 kts 254°
2026-04-29 16:33 40.69861 9.23818 34977 ft 429 kts 254°
2026-04-29 16:33 40.68231 9.16242 34965 ft 430 kts 254°
2026-04-29 16:34 40.66594 9.08658 34959 ft 431 kts 254°
2026-04-29 16:34 40.64952 9.01080 34960 ft 431 kts 254°
2026-04-29 16:35 40.63301 8.93490 34950 ft 431 kts 254°
2026-04-29 16:35 40.61649 8.85918 34957 ft 430 kts 254°
2026-04-29 16:36 40.59994 8.78359 34959 ft 430 kts 254°
2026-04-29 16:36 40.58345 8.70856 34955 ft 430 kts 254°
2026-04-29 16:37 40.56682 8.63313 34956 ft 429 kts 254°
2026-04-29 16:37 40.55287 8.57004 34960 ft 429 kts 254°
2026-04-29 16:38 40.53347 8.48263 34962 ft 428 kts 254°
2026-04-29 16:38 40.51674 8.40753 34965 ft 428 kts 254°
2026-04-29 16:39 40.49999 8.33257 34967 ft 428 kts 254°
2026-04-29 16:39 40.48315 8.25747 34960 ft 428 kts 254°
2026-04-29 16:40 40.46627 8.18247 34958 ft 428 kts 254°
2026-04-29 16:40 40.44935 8.10748 34956 ft 428 kts 254°
2026-04-29 16:41 40.43238 8.03251 34955 ft 428 kts 254°
2026-04-29 16:41 40.41831 7.95664 34954 ft 428 kts 261°
2026-04-29 16:42 40.40893 7.87955 34941 ft 428 kts 262°
2026-04-29 16:42 40.39963 7.80236 34946 ft 428 kts 261°
2026-04-29 16:43 40.38991 7.72529 34949 ft 429 kts 261°
2026-04-29 16:43 40.37995 7.64817 34948 ft 429 kts 261°
2026-04-29 16:44 40.36991 7.57106 34947 ft 429 kts 261°
2026-04-29 16:44 40.35981 7.49384 34950 ft 429 kts 261°
2026-04-29 16:45 40.34968 7.41666 34948 ft 430 kts 261°
2026-04-29 16:45 40.33949 7.33943 34952 ft 430 kts 261°
2026-04-29 16:46 40.32927 7.26224 34951 ft 430 kts 261°
2026-04-29 16:46 40.31909 7.18505 34952 ft 430 kts 261°
2026-04-29 16:47 40.30888 7.10785 34954 ft 430 kts 261°
2026-04-29 16:47 40.29861 7.03062 34956 ft 430 kts 261°
2026-04-29 16:48 40.28828 6.95346 34951 ft 430 kts 261°
2026-04-29 16:48 40.27792 6.87640 34951 ft 430 kts 261°
2026-04-29 16:49 40.26750 6.79934 34951 ft 429 kts 261°
2026-04-29 16:49 40.25711 6.72295 34952 ft 429 kts 261°
2026-04-29 16:50 40.24661 6.64607 34955 ft 429 kts 261°
2026-04-29 16:50 40.23607 6.56927 34950 ft 429 kts 261°
2026-04-29 16:51 40.22548 6.49253 34954 ft 428 kts 261°
2026-04-29 16:51 40.21483 6.41581 34958 ft 429 kts 261°
2026-04-29 16:52 40.20413 6.33901 34953 ft 430 kts 261°
2026-04-29 16:52 40.19335 6.26211 34953 ft 430 kts 261°
2026-04-29 16:53 40.18251 6.18515 34952 ft 431 kts 261°
2026-04-29 16:53 40.17161 6.10808 34949 ft 431 kts 261°
2026-04-29 16:54 40.16064 6.03099 34948 ft 431 kts 261°
2026-04-29 16:54 40.14963 5.95394 34948 ft 431 kts 261°
2026-04-29 16:55 40.13859 5.87701 34951 ft 431 kts 261°
2026-04-29 16:55 40.12762 5.80007 34945 ft 430 kts 261°
2026-04-29 16:56 40.11679 5.72319 34950 ft 430 kts 261°
2026-04-29 16:56 40.10594 5.64642 34950 ft 430 kts 261°
2026-04-29 16:57 40.09503 5.56978 34950 ft 430 kts 261°
2026-04-29 16:57 40.08403 5.49300 34948 ft 430 kts 261°
2026-04-29 16:58 40.07300 5.41632 34947 ft 430 kts 261°
2026-04-29 16:58 40.06191 5.33965 34944 ft 430 kts 261°
2026-04-29 16:59 40.05076 5.26296 34944 ft 430 kts 261°
2026-04-29 16:59 40.03964 5.18683 34945 ft 430 kts 261°
2026-04-29 17:00 40.02840 5.11019 34943 ft 430 kts 261°
2026-04-29 17:00 40.01708 5.03344 34936 ft 431 kts 261°
2026-04-29 17:01 40.00572 4.95670 34944 ft 431 kts 261°
2026-04-29 17:01 39.99429 4.87992 34941 ft 431 kts 261°
2026-04-29 17:02 39.98281 4.80310 34937 ft 432 kts 261°
2026-04-29 17:02 39.96967 4.72666 34933 ft 433 kts 257°
2026-04-29 17:03 39.95378 4.65088 34939 ft 433 kts 256°
2026-04-29 17:03 39.94590 4.61296 35045 ft 434 kts 256°
2026-04-29 17:03 39.93810 4.57502 34937 ft 434 kts 257°
2026-04-29 17:04 39.92257 4.49918 34939 ft 433 kts 256°
2026-04-29 17:04 39.90699 4.42342 34942 ft 433 kts 256°
2026-04-29 17:05 39.89133 4.34765 34940 ft 433 kts 256°
2026-04-29 17:05 39.87564 4.27195 34940 ft 433 kts 256°
2026-04-29 17:06 39.85987 4.19623 34941 ft 433 kts 256°
2026-04-29 17:06 39.84405 4.12063 34944 ft 433 kts 256°
2026-04-29 17:07 39.83085 4.05773 34940 ft 433 kts 256°
2026-04-29 17:07 39.81226 3.96937 34938 ft 433 kts 256°
2026-04-29 17:08 39.79632 3.89389 34936 ft 433 kts 256°
2026-04-29 17:08 39.78033 3.81846 34933 ft 432 kts 256°
2026-04-29 17:09 39.76434 3.74325 34926 ft 431 kts 256°
2026-04-29 17:09 39.74833 3.66828 34937 ft 430 kts 256°
2026-04-29 17:10 39.73232 3.59347 34934 ft 429 kts 256°
2026-04-29 17:10 39.71629 3.51885 34932 ft 429 kts 256°
2026-04-29 17:11 39.70023 3.44434 34933 ft 428 kts 255°
2026-04-29 17:11 39.68124 3.37100 34937 ft 429 kts 251°
2026-04-29 17:12 39.66010 3.29860 34930 ft 429 kts 251°
2026-04-29 17:12 39.64612 3.25061 34929 ft 429 kts 251°
2026-04-29 17:13 39.61825 3.15357 34924 ft 429 kts 251°
2026-04-29 17:13 39.60108 3.09349 34922 ft 429 kts 251°
2026-04-29 17:14 39.58030 3.02097 34917 ft 429 kts 251°
2026-04-29 17:14 39.55948 2.94851 34915 ft 429 kts 251°
2026-04-29 17:15 39.54217 2.88839 34913 ft 428 kts 251°
2026-04-29 17:15 39.51778 2.80393 34914 ft 428 kts 251°
2026-04-29 17:16 39.49716 2.73225 34911 ft 427 kts 251°
2026-04-29 17:16 39.47643 2.66021 34910 ft 426 kts 251°
2026-04-29 17:17 39.45908 2.60009 34913 ft 425 kts 251°
2026-04-29 17:17 39.43499 2.51687 34915 ft 424 kts 251°
2026-04-29 17:18 39.41764 2.45705 34915 ft 424 kts 251°
2026-04-29 17:18 39.39689 2.38585 34920 ft 423 kts 251°
2026-04-29 17:19 39.37602 2.31480 34921 ft 422 kts 251°
2026-04-29 17:19 39.35526 2.24436 34923 ft 422 kts 251°
2026-04-29 17:20 39.33437 2.17354 34922 ft 422 kts 251°
2026-04-29 17:20 39.31346 2.10284 34921 ft 421 kts 251°
2026-04-29 17:21 39.29250 2.03215 34920 ft 421 kts 251°
2026-04-29 17:21 39.26871 1.96305 34910 ft 425 kts 239°
2026-04-29 17:22 39.23474 1.90047 34918 ft 426 kts 237°
2026-04-29 17:22 39.20041 1.83839 34920 ft 425 kts 237°
2026-04-29 17:23 39.16628 1.77615 34916 ft 425 kts 237°
2026-04-29 17:23 39.13236 1.71394 34917 ft 424 kts 237°
2026-04-29 17:24 39.09852 1.65182 34912 ft 423 kts 237°
2026-04-29 17:24 39.06470 1.58984 34913 ft 423 kts 237°
2026-04-29 17:25 39.03086 1.52795 34909 ft 423 kts 237°
2026-04-29 17:25 38.99694 1.46605 34912 ft 423 kts 237°
2026-04-29 17:26 38.96308 1.40438 34911 ft 422 kts 237°
2026-04-29 17:26 38.92928 1.34292 34921 ft 421 kts 237°
2026-04-29 17:27 38.89540 1.28144 34908 ft 422 kts 237°
2026-04-29 17:27 38.86173 1.22045 34913 ft 421 kts 237°
2026-04-29 17:28 38.82786 1.15922 34908 ft 420 kts 237°
2026-04-29 17:28 38.79402 1.09816 34915 ft 420 kts 237°
2026-04-29 17:29 38.76021 1.03728 34910 ft 419 kts 237°
2026-04-29 17:29 38.72640 0.97650 34913 ft 419 kts 237°
2026-04-29 17:30 38.69258 0.91583 34914 ft 418 kts 237°
2026-04-29 17:30 38.65880 0.85533 34919 ft 418 kts 237°
2026-04-29 17:31 38.62498 0.79487 34917 ft 418 kts 237°
2026-04-29 17:31 38.59109 0.73440 34922 ft 419 kts 237°
2026-04-29 17:32 38.55713 0.67392 34917 ft 419 kts 237°
2026-04-29 17:32 38.52314 0.61351 34911 ft 418 kts 237°
2026-04-29 17:33 38.48918 0.55326 34918 ft 418 kts 237°
2026-04-29 17:33 38.45524 0.49315 34920 ft 417 kts 237°
2026-04-29 17:34 38.42132 0.43319 34921 ft 417 kts 237°
2026-04-29 17:34 38.38738 0.37331 34922 ft 416 kts 236°
2026-04-29 17:35 38.33646 0.28366 34924 ft 416 kts 236°
2026-04-29 17:36 38.30251 0.22403 34920 ft 416 kts 236°
2026-04-29 17:36 38.26851 0.16442 34921 ft 416 kts 236°
2026-04-29 17:37 38.23475 0.10534 34916 ft 416 kts 236°
2026-04-29 17:37 38.20073 0.04592 34929 ft 415 kts 236°
2026-04-29 17:38 38.16670 -0.01341 34991 ft 414 kts 236°
2026-04-29 17:38 38.13307 -0.07192 34924 ft 405 kts 236°
2026-04-29 17:39 38.09982 -0.12969 34924 ft 405 kts 236°
2026-04-29 17:39 38.06809 -0.18476 34918 ft 406 kts 236°
2026-04-29 17:40 38.03463 -0.24271 34935 ft 409 kts 236°
2026-04-29 17:40 38.00095 -0.30093 34928 ft 410 kts 236°
2026-04-29 17:41 37.96718 -0.35919 34931 ft 410 kts 236°
2026-04-29 17:41 37.93334 -0.41746 34929 ft 410 kts 236°
2026-04-29 17:42 37.89952 -0.47560 34930 ft 410 kts 236°
2026-04-29 17:42 37.86569 -0.53367 34933 ft 409 kts 236°
2026-04-29 17:43 37.83189 -0.59157 34936 ft 409 kts 236°
2026-04-29 17:43 37.79810 -0.64935 34938 ft 408 kts 236°
2026-04-29 17:44 37.76440 -0.70689 34940 ft 407 kts 236°
2026-04-29 17:44 37.73070 -0.76433 34938 ft 406 kts 236°
2026-04-29 17:45 37.69706 -0.82156 34940 ft 405 kts 236°
2026-04-29 17:45 37.66351 -0.87854 34937 ft 405 kts 236°
2026-04-29 17:46 37.62993 -0.93548 34938 ft 404 kts 236°
2026-04-29 17:46 37.59631 -0.99239 34935 ft 404 kts 236°
2026-04-29 17:47 37.56272 -1.04915 34931 ft 404 kts 236°
2026-04-29 17:47 37.52910 -1.10585 34932 ft 403 kts 236°
2026-04-29 17:48 37.49555 -1.16235 34928 ft 403 kts 236°
2026-04-29 17:48 37.46216 -1.21848 34930 ft 403 kts 236°
2026-04-29 17:49 37.42847 -1.27503 34930 ft 404 kts 236°
2026-04-29 17:49 37.39478 -1.33146 34924 ft 403 kts 236°
2026-04-29 17:50 37.36114 -1.38772 34929 ft 402 kts 236°
2026-04-29 17:50 37.32745 -1.44399 34931 ft 403 kts 236°
2026-04-29 17:51 37.29373 -1.50020 34927 ft 403 kts 236°
2026-04-29 17:51 37.25738 -1.55387 34935 ft 405 kts 227°
2026-04-29 17:52 37.21667 -1.60266 34933 ft 405 kts 227°
2026-04-29 17:52 37.17585 -1.65127 34927 ft 405 kts 227°
2026-04-29 17:53 37.13521 -1.70007 34924 ft 404 kts 227°
2026-04-29 17:53 37.09469 -1.74892 34923 ft 404 kts 227°
2026-04-29 17:54 37.05418 -1.79776 34924 ft 404 kts 227°
2026-04-29 17:54 37.01380 -1.84637 34921 ft 402 kts 227°
2026-04-29 17:55 36.97351 -1.89482 34926 ft 402 kts 227°
2026-04-29 17:55 36.93319 -1.94323 34928 ft 402 kts 227°
2026-04-29 17:56 36.89274 -1.99171 34931 ft 403 kts 227°
2026-04-29 17:56 36.85224 -2.04018 34928 ft 403 kts 227°
2026-04-29 17:57 36.81171 -2.08860 34928 ft 403 kts 227°
2026-04-29 17:57 36.77122 -2.13689 34931 ft 402 kts 227°
2026-04-29 17:58 36.73078 -2.18506 34942 ft 401 kts 227°
2026-04-29 17:58 36.69039 -2.23310 34930 ft 401 kts 227°
2026-04-29 17:59 36.65004 -2.28101 34940 ft 400 kts 227°
2026-04-29 17:59 36.61000 -2.32849 34935 ft 400 kts 227°
2026-04-29 18:00 36.56970 -2.37620 34937 ft 400 kts 226°
2026-04-29 18:00 36.52941 -2.42383 34932 ft 399 kts 226°
2026-04-29 18:01 36.48912 -2.47138 34930 ft 399 kts 226°
2026-04-29 18:01 36.44883 -2.51886 34929 ft 399 kts 226°
2026-04-29 18:02 36.40846 -2.56637 34931 ft 400 kts 226°
2026-04-29 18:02 36.36813 -2.61376 34936 ft 400 kts 226°
2026-04-29 18:03 36.32769 -2.66121 34935 ft 400 kts 226°
2026-04-29 18:03 36.28723 -2.70861 34930 ft 400 kts 226°
2026-04-29 18:04 36.24676 -2.75595 34938 ft 400 kts 226°
2026-04-29 18:04 36.20628 -2.80322 34940 ft 400 kts 226°
2026-04-29 18:05 36.16576 -2.85049 34936 ft 400 kts 226°
2026-04-29 18:05 36.13205 -2.88974 34935 ft 400 kts 226°
2026-04-29 18:06 36.08498 -2.94448 34938 ft 400 kts 226°
2026-04-29 18:06 36.04445 -2.99154 34938 ft 400 kts 226°
2026-04-29 18:07 36.01050 -3.03091 34938 ft 399 kts 226°
2026-04-29 18:07 35.96998 -3.07784 34938 ft 399 kts 226°
2026-04-29 18:08 35.92972 -3.12439 34941 ft 399 kts 226°
2026-04-29 18:08 35.88925 -3.17113 34942 ft 399 kts 226°
2026-04-29 18:09 35.84874 -3.21785 34944 ft 399 kts 226°
2026-04-29 18:09 35.80645 -3.26219 34949 ft 400 kts 221°
2026-04-29 18:10 35.76205 -3.30357 34944 ft 401 kts 220°
2026-04-29 18:10 35.71752 -3.34486 34946 ft 400 kts 220°
2026-04-29 18:11 35.67320 -3.38625 34950 ft 400 kts 220°
2026-04-29 18:11 35.62890 -3.42775 34946 ft 400 kts 220°
2026-04-29 18:12 35.58460 -3.46923 34949 ft 400 kts 220°
2026-04-29 18:12 35.54028 -3.51067 34952 ft 400 kts 220°
2026-04-29 18:13 35.49594 -3.55206 34951 ft 401 kts 220°
2026-04-29 18:13 35.45153 -3.59347 34948 ft 401 kts 220°
2026-04-29 18:14 35.40711 -3.63482 34959 ft 401 kts 220°
2026-04-29 18:14 35.36269 -3.67612 34965 ft 401 kts 220°
2026-04-29 18:15 35.31818 -3.71743 34963 ft 401 kts 220°
2026-04-29 18:15 35.27367 -3.75870 34967 ft 401 kts 220°
2026-04-29 18:16 35.22913 -3.79995 34964 ft 402 kts 220°
2026-04-29 18:16 35.18456 -3.84117 34964 ft 402 kts 220°
2026-04-29 18:17 35.14042 -3.88294 34966 ft 401 kts 221°
2026-04-29 18:17 35.09674 -3.92470 34968 ft 402 kts 220°
2026-04-29 18:18 35.05269 -3.96669 34969 ft 402 kts 220°
2026-04-29 18:18 35.00853 -4.00866 34969 ft 402 kts 220°
2026-04-29 18:19 34.96437 -4.05053 34970 ft 402 kts 220°
2026-04-29 18:19 34.92019 -4.09235 34977 ft 402 kts 220°
2026-04-29 18:20 34.87600 -4.13413 34964 ft 402 kts 220°
2026-04-29 18:20 34.83177 -4.17589 34958 ft 402 kts 220°
2026-04-29 18:21 34.78754 -4.21759 34959 ft 403 kts 220°
2026-04-29 18:21 34.74332 -4.25921 34964 ft 402 kts 220°
2026-04-29 18:22 34.69909 -4.30080 34960 ft 402 kts 220°
2026-04-29 18:22 34.65479 -4.34239 34968 ft 403 kts 220°
2026-04-29 18:23 34.61042 -4.38400 34964 ft 403 kts 220°
2026-04-29 18:23 34.56600 -4.42558 34969 ft 403 kts 220°
2026-04-29 18:24 34.52155 -4.46715 34957 ft 404 kts 220°
2026-04-29 18:24 34.47730 -4.50847 34956 ft 404 kts 220°
2026-04-29 18:25 34.43275 -4.55003 34957 ft 404 kts 219°
2026-04-29 18:25 34.38824 -4.59147 34951 ft 403 kts 219°
2026-04-29 18:26 34.34363 -4.63263 34955 ft 403 kts 219°
2026-04-29 18:26 34.29896 -4.67369 34967 ft 403 kts 219°
2026-04-29 18:27 34.25430 -4.71471 34963 ft 403 kts 219°
2026-04-29 18:27 34.20966 -4.75569 34970 ft 403 kts 219°
2026-04-29 18:28 34.16496 -4.79668 34969 ft 403 kts 219°
2026-04-29 18:28 34.12030 -4.83758 34983 ft 403 kts 219°
2026-04-29 18:29 34.07564 -4.87842 34992 ft 403 kts 219°
2026-04-29 18:29 34.03089 -4.91929 34990 ft 403 kts 219°
2026-04-29 18:30 33.98615 -4.96011 34993 ft 404 kts 219°
2026-04-29 18:30 33.94130 -5.00096 34995 ft 404 kts 218°
2026-04-29 18:31 33.89645 -5.04102 34995 ft 405 kts 217°
2026-04-29 18:31 33.85067 -5.08053 34994 ft 405 kts 217°
2026-04-29 18:32 33.80484 -5.12003 34994 ft 405 kts 217°
2026-04-29 18:32 33.73612 -5.17943 34999 ft 406 kts 217°
2026-04-29 18:33 33.69029 -5.21903 34991 ft 407 kts 217°
2026-04-29 18:33 33.64431 -5.25871 34992 ft 407 kts 217°
2026-04-29 18:34 33.60611 -5.29164 34994 ft 407 kts 217°
2026-04-29 18:34 33.55235 -5.33792 34992 ft 407 kts 217°
2026-04-29 18:35 33.50638 -5.37745 34988 ft 407 kts 217°
2026-04-29 18:35 33.46036 -5.41695 34979 ft 406 kts 217°
2026-04-29 18:36 33.41451 -5.45619 34982 ft 405 kts 217°
2026-04-29 18:36 33.36855 -5.49545 34977 ft 406 kts 217°
2026-04-29 18:37 33.32255 -5.53471 34980 ft 407 kts 217°
2026-04-29 18:37 33.27677 -5.57373 34973 ft 406 kts 217°
2026-04-29 18:38 33.23080 -5.61288 34972 ft 406 kts 217°
2026-04-29 18:38 33.18475 -5.65203 34969 ft 407 kts 217°
2026-04-29 18:39 33.13860 -5.69123 34968 ft 407 kts 217°
2026-04-29 18:39 33.09240 -5.73041 34955 ft 408 kts 217°
2026-04-29 18:40 33.04607 -5.76965 34960 ft 408 kts 217°
2026-04-29 18:40 32.99980 -5.80880 34953 ft 407 kts 217°
2026-04-29 18:41 32.90744 -5.88678 34954 ft 408 kts 217°
2026-04-29 18:42 32.86112 -5.92582 34947 ft 408 kts 217°
2026-04-29 18:42 32.81481 -5.96480 34945 ft 408 kts 217°
2026-04-29 18:43 32.76848 -6.00375 34950 ft 408 kts 217°
2026-04-29 18:43 32.72214 -6.04265 34946 ft 408 kts 217°
2026-04-29 18:44 32.67581 -6.08153 34943 ft 408 kts 217°
2026-04-29 18:44 32.62973 -6.12018 34941 ft 408 kts 217°
2026-04-29 18:45 32.58333 -6.15904 34943 ft 408 kts 217°
2026-04-29 18:45 32.53695 -6.19785 34937 ft 408 kts 217°
2026-04-29 18:46 32.49060 -6.23661 34937 ft 408 kts 218°
2026-04-29 18:46 32.45139 -6.28427 34941 ft 405 kts 236°
2026-04-29 18:47 32.42340 -6.34200 34937 ft 405 kts 242°
2026-04-29 18:47 32.39653 -6.40045 34938 ft 404 kts 242°
2026-04-29 18:48 32.36963 -6.45839 34921 ft 394 kts 242°
2026-04-29 18:48 32.34358 -6.51414 34941 ft 387 kts 242°
2026-04-29 18:49 32.31750 -6.56982 34689 ft 389 kts 242°
2026-04-29 18:49 32.30449 -6.59756 34419 ft 382 kts 241°
2026-04-29 18:49 32.29164 -6.62492 34029 ft 380 kts 241°
2026-04-29 18:50 32.27866 -6.65256 33650 ft 392 kts 241°
2026-04-29 18:50 32.26515 -6.68130 33233 ft 407 kts 241°
2026-04-29 18:50 32.25124 -6.71088 32786 ft 415 kts 241°
2026-04-29 18:50 32.23725 -6.74060 32337 ft 413 kts 241°
2026-04-29 18:51 32.22338 -6.77003 31910 ft 408 kts 241°
2026-04-29 18:51 32.20982 -6.79877 31497 ft 403 kts 240°
2026-04-29 18:51 32.19625 -6.82751 31104 ft 400 kts 240°
2026-04-29 18:51 32.18272 -6.85616 30697 ft 399 kts 240°
2026-04-29 18:52 32.16923 -6.88469 30290 ft 397 kts 240°
2026-04-29 18:52 32.15577 -6.91315 29890 ft 397 kts 240°
2026-04-29 18:52 32.14230 -6.94161 29437 ft 397 kts 240°
2026-04-29 18:52 32.12887 -6.96993 28985 ft 395 kts 240°
2026-04-29 18:53 32.11552 -6.99809 28568 ft 391 kts 240°
2026-04-29 18:53 32.10229 -7.02598 28142 ft 389 kts 240°
2026-04-29 18:53 32.08912 -7.05371 27731 ft 387 kts 240°
2026-04-29 18:53 32.07598 -7.08137 27325 ft 385 kts 239°
2026-04-29 18:54 32.06292 -7.10884 26929 ft 384 kts 239°
2026-04-29 18:54 32.04987 -7.13627 26524 ft 382 kts 239°
2026-04-29 18:54 32.03691 -7.16350 26125 ft 380 kts 239°
2026-04-29 18:54 32.02403 -7.19051 25739 ft 377 kts 239°
2026-04-29 18:55 32.01144 -7.21751 25345 ft 375 kts 241°
2026-04-29 18:55 31.99936 -7.24467 24952 ft 373 kts 241°
2026-04-29 18:55 31.98749 -7.27179 24570 ft 372 kts 242°
2026-04-29 18:55 31.97565 -7.29884 24178 ft 371 kts 241°
2026-04-29 18:56 31.96381 -7.32581 23789 ft 370 kts 241°
2026-04-29 18:56 31.95197 -7.35263 23347 ft 369 kts 241°
2026-04-29 18:56 31.94015 -7.37932 22917 ft 366 kts 241°
2026-04-29 18:56 31.92841 -7.40580 22514 ft 363 kts 241°
2026-04-29 18:57 31.92068 -7.42321 22264 ft 361 kts 241°
2026-04-29 18:57 31.90910 -7.44929 21866 ft 358 kts 241°
2026-04-29 18:57 31.89760 -7.47514 21496 ft 355 kts 241°
2026-04-29 18:57 31.88615 -7.50087 21134 ft 354 kts 241°
2026-04-29 18:58 31.87583 -7.52726 20612 ft 359 kts 251°
2026-04-29 18:58 31.87039 -7.55596 20216 ft 360 kts 262°
2026-04-29 18:58 31.86875 -7.58539 19826 ft 360 kts 265°
2026-04-29 18:58 31.86776 -7.61481 19444 ft 360 kts 265°
2026-04-29 18:59 31.86686 -7.64411 19075 ft 357 kts 265°
2026-04-29 18:59 31.86593 -7.67318 18712 ft 354 kts 265°
2026-04-29 18:59 31.86495 -7.70201 18340 ft 352 kts 265°
2026-04-29 18:59 31.86390 -7.73067 17935 ft 349 kts 265°
2026-04-29 19:00 31.86282 -7.75905 17557 ft 346 kts 265°
2026-04-29 19:00 31.86080 -7.78709 17175 ft 342 kts 256°
2026-04-29 19:00 31.85573 -7.80900 16899 ft 338 kts 251°
2026-04-29 19:00 31.84851 -7.83485 16524 ft 336 kts 250°
2026-04-29 19:01 31.84083 -7.86105 15935 ft 341 kts 249°
2026-04-29 19:01 31.83298 -7.88742 15390 ft 342 kts 249°
2026-04-29 19:01 31.82513 -7.91359 14824 ft 337 kts 249°
2026-04-29 19:01 31.81734 -7.93941 14283 ft 333 kts 249°
2026-04-29 19:02 31.80960 -7.96489 13745 ft 329 kts 249°
2026-04-29 19:02 31.80193 -7.99006 13152 ft 325 kts 249°
2026-04-29 19:02 31.79435 -8.01489 12561 ft 321 kts 249°
2026-04-29 19:02 31.78686 -8.03949 11992 ft 318 kts 249°
2026-04-29 19:03 31.77966 -8.06328 11710 ft 306 kts 249°
2026-04-29 19:03 31.77257 -8.08680 11318 ft 298 kts 249°
2026-04-29 19:03 31.76584 -8.10923 10911 ft 293 kts 249°
2026-04-29 19:03 31.75916 -8.13160 10476 ft 289 kts 249°
2026-04-29 19:04 31.75256 -8.15377 10010 ft 286 kts 249°
2026-04-29 19:04 31.74602 -8.17578 9507 ft 284 kts 249°
2026-04-29 19:04 31.73952 -8.19764 9002 ft 283 kts 249°
2026-04-29 19:04 31.73303 -8.21934 8593 ft 278 kts 249°
2026-04-29 19:05 31.72670 -8.24046 8340 ft 269 kts 249°
2026-04-29 19:05 31.71850 -8.25941 8072 ft 255 kts 225°
2026-04-29 19:05 31.71790 -8.26016 8059 ft 254 kts 223°
2026-04-29 19:05 31.71425 -8.26385 8005 ft 248 kts 213°
2026-04-29 19:06 31.69847 -8.26983 7712 ft 240 kts 183°
2026-04-29 19:06 31.68157 -8.26965 7182 ft 245 kts 179°
2026-04-29 19:06 31.64828 -8.26455 6108 ft 241 kts 160°
2026-04-29 19:07 31.63415 -8.25441 5523 ft 240 kts 131°
2026-04-29 19:07 31.62858 -8.24346 5161 ft 238 kts 106°
2026-04-29 19:07 31.63002 -8.21843 4526 ft 232 kts 57°
2026-04-29 19:07 31.64185 -8.20681 4395 ft 224 kts 18°
2026-04-29 19:08 31.65699 -8.20703 4234 ft 221 kts 337°
2026-04-29 19:08 31.66818 -8.21889 4113 ft 224 kts 297°
2026-04-29 19:08 31.67005 -8.23684 4035 ft 229 kts 256°
2026-04-29 19:08 31.66143 -8.25236 4006 ft 233 kts 216°
2026-04-29 19:09 31.64625 -8.25805 4012 ft 234 kts 177°
2026-04-29 19:09 31.63159 -8.25143 3986 ft 225 kts 136°
2026-04-29 19:09 31.62447 -8.23636 4001 ft 206 kts 99°
2026-04-29 19:09 31.62281 -8.22018 3998 ft 198 kts 93°
2026-04-29 19:10 31.62164 -8.20402 3958 ft 200 kts 94°
2026-04-29 19:10 31.62028 -8.18765 3750 ft 203 kts 94°
2026-04-29 19:10 31.61882 -8.17123 3486 ft 200 kts 94°
2026-04-29 19:10 31.61739 -8.15522 3225 ft 194 kts 94°
2026-04-29 19:11 31.61603 -8.13984 2969 ft 185 kts 94°
2026-04-29 19:11 31.61473 -8.12516 2737 ft 177 kts 94°
2026-04-29 19:11 31.61350 -8.11137 2560 ft 163 kts 94°
2026-04-29 19:11 31.61233 -8.09793 2322 ft 162 kts 95°
2026-04-29 19:12 31.61126 -8.08521 2100 ft 153 kts 96°
2026-04-29 19:12 31.61017 -8.07281 1893 ft 152 kts 97°
2026-04-29 19:12 31.60908 -8.06077 1723 ft 149 kts 97°
2026-04-29 19:12 31.60836 -8.05268 1581 ft 148 kts 97°
2026-04-29 19:13 31.60710 -8.03873 1539 ft 95 kts 95°
2026-04-29 19:13 31.60660 -8.03351 1539 ft 34 kts 105°
2026-04-29 19:13 31.60572 -8.03146 1544 ft 25 kts 125°
2026-04-29 19:13 31.60481 -8.03006 1543 ft 16 kts 129°
2026-04-29 19:14 31.60449 -8.02919 1548 ft 11 kts 94°
2026-04-29 19:14 31.60444 -8.02833 1541 ft 10 kts 91°
2026-04-29 19:14 31.60439 -8.02749 1546 ft 10 kts 95°
2026-04-29 19:14 31.60432 -8.02667 1548 ft 10 kts 95°
2026-04-29 19:15 31.60426 -8.02588 1542 ft 9 kts 95°
2026-04-29 19:15 31.60410 -8.02536 1544 ft 6 kts 146°
2026-04-29 19:15 31.60371 -8.02538 1548 ft 6 kts 186°
2026-04-29 19:15 31.60335 -8.02542 1545 ft 4 kts 186°
2026-04-29 19:16 31.60309 -8.02545 1546 ft 2 kts 186°
2026-04-29 19:16 31.60306 -8.02546 1545 ft 0 kts 186°